Home Rules Search Enroll Grooms Brides Divorcee Success Stories Response Magazine Photo Edit
 
Grooms
 
This is only reference list of all registered profiles. You may please use Simple Search option to find matching profiles by giving age, height, education, occupation & native place. If you want contact details of matching profiles, please submit matching registration nos. through RESPONSE option along with your registration no. & registered email id.
 
Reg.No Reg-Dt Height Birth-Dt Education Residence Occupation
             
 
MB57964 16/04/17 5.10 30/11/87 BE PUNE OFFICER CANARA BANK /45000 PM
MB57963 16/04/17 5.06 08/09/89 BE (COMP.SC.& ENGG.) PUNE ITA, TCS PUNE/RS.60000/- PM
MB57962 16/04/17 5.10 09/03/90 MDS CONSERVATIVE DENTISTRY & ENDODONTICS PUNE CONSULTANT ENDODONTIST PUNE/100000 PM
MB57961 16/04/17 5.08 12/06/92 MBBS PUNE PUNE/ PM
MB57960 16/04/17 5.10 23/06/85 ITI, B.Sc(Maths), B.E. (Mechanical) BHOPAL Government service in Sate Of M.P. (MP Electricity Board) at Pay Band-2 with 300000 per annum ( 7th pay awaited). /300000 PA
MB57959 16/04/17 5.08 27/10/89 BE(MECH) PUNE ENGINEER IN PUNE/2.2 LAC PA
MB57958 16/04/17 5.06 06/11/88 MCOM, DTL PUNE SR.A/C EXECUTIVE IN PUNE/4.5 LAC PA
MB57957 16/04/17 5.07 16/07/87 B.PHARM PUNE SERVICE IN PHARMA COMPANY PUNE/4 TO 5 LAC PA
MB57956 16/04/17 5.10 05/06/84 BE(CSE), MBA(IT)(SYMBIOSIS INTERNATIONAL UNIVERSITY), MBA (MARKETING) SANGLI DEVELOPMENT OFFICER (GOVT. OF INDIA) SANGLI/6 LAC PA+INCENTIVE
MB57955 16/04/17 5.07 04/05/89 MBBS 3RD YEAR DNB GYNAECOLOGY KOLHAPUR SECUNDERABAD/65000 PM
MB57954 16/04/17 5.08 17/10/88 M.TECH. ENVIRONMENTAL SCIENCE & TECHNOLOGY PUNE QHSE EXECUTIVE PUNE/4.03 LAC PA
MB57953 16/04/17 5.06 13/08/82 B. E. CIVIL (COEP) PUNE BUILDER, CONTRACTOR PUNE/ PM
MB57952 15/04/17 5.11 10/10/83 MCOM, MCA, MBA BELGAUM FINANCE DY.MANAGER /--
MB57951 15/04/17 5.11 05/07/86 M.B.B.S F.C.P.S (Surgery) SANGLI DOCTOR AURANGABAD/ PM
MB57950 15/04/17 6.00 03/09/87 SOFTWARE ENGINEER NAVI MUMBAI SERVICE NAVI MUMBAI/40000 PM
MB57949 15/04/17 5.05 13/11/88 BBA, MBA, GDC&A KOLHAPUR CHIEF OFFICER AT NAGARPALIKA AURANGABAD/
MB57948 15/04/17 5.08 26/09/87 MCS PUNE SERVICE AT AIM S/W SOL.PVT.LTD PUNE/30000/-PM
MB57947 15/04/17 5.11 25/05/88 BE(IT) MUMBAI ASST.MANAGER IDBI BANK MUMBAI/60000/+20000/-OTHER
MB57946 15/04/17 5.04 31/03/87 B.E.(I.T.) NAVI MUMBAI SOFTWARE ENGG NAVI MUMBAI/3.80 LAC PA
MB57945 15/04/17 5.11 06/10/84 BE(IT) SOLAPUR SERVICE IN MNC PUNE (WORKED IN LONDON UK FOR ONE YEAR, WORKED IN CANADA FOR ONE YEAR & RETURNED)/14 LAC PA
MB57944 15/04/17 5.10 01/05/86 COMPUTER ENGINEER MUMBAI SERVICE IN CAPGEMINI MNC MUMBAI/70000 PM
MB57943 15/04/17 5.07 10/09/89 MCOM PUNE SR.CLERK IN CO-OP BANK PUNE/40000/-PM
MB57942 15/04/17 5.06 30/04/88 MCS PUNE S/W ENGINEER PUNE/50000 PM
MB57941 15/04/17 5.08 23/05/88 BE E&TC NAGPUR MAHARASHTRA STATE POWER GENERATION COMPANY LTD.(MSEB) NAGPUR/42,000 PM
MB57940 15/04/17 5.07 13/12/90 BE(COMP) PUNE SERVICE IN INFOSYS PUNE/7.15 LAC PA
MB57939 15/04/17 5.06 16/01/84 BE(INSTRU), MBA PUNE PURCHASE ENGINEER IN MNC PUNE/4 LAC PA
MB57938 15/04/17 5.09 15/09/86 BSC AGRI.B.M, MBA SOLAPUR Area Sales Officer -Nilkamal Plastics Ltd. + Own Business pune/8,20,000/- PA
MB57937 15/04/17 5.05 13/05/89 BBA, MBA PUNE SERVICE IN PUNE/30000/-PM
MB57936 15/04/17 5.11 27/03/89 BE (ELECTRONICS & TELECOM) PUNE SENIOR SYSTEMS ENGINEER INFOSYS PUNE/550000 PA
MB57935 15/04/17 5.09 14/04/80 BACHELOR DEGREE IN MEDICINE NAGPUR OCCUPATIONAL THERAPIST UAE/1000000 PA
MB57934 15/04/17 5.05 28/01/89 MBBS DCH DNB 2ND YEAR BEED DNB RESIDENT MUMBAI/50000 PM
MB57933 15/04/17 5.11 12/01/87 MASTER IN INDUSTRIAL MANAGEMENT NAVI MUMBAI SAP CONSULTANT Chicago(USA) / PM
MB57932 15/04/17 5.08 14/10/88 MCS PUNE UNIVERSITY PUNE COGNIZANT PUNE/10 LACS PA
MB57931 15/04/17 5.09 05/01/84 BE(IT), MS(USA) PUNE CEO/ President IT company (Pune)/36 LAC PA
MB57930 14/04/17 5.10 02/08/89 BE(COMP), M.TECH(IT) PUNE SERVICE advarisk THANE/4.6 LPA
MB57929 14/04/17 5.10 06/04/91 B.E (UNIVERSITY OF PUNE), M.TECH - IIIT BANGALORE OSMANABAD NETWORK CONSULTING ENGINEER BANGALORE/13 LAC PA
MB57928 14/04/17 6.00 04/05/86 BE PUNE MANAGER IN RELIANCE JIO NAVI MUMBAI/12.5 LAC PA
MB57927 14/04/17 5.10 23/08/90 BCOM PUNE PWD PUNE/25000/-PM
MB57926 14/04/17 5.05 07/12/85 MCOM, GDC&A PUNE JANATA SAHAKARI BANK+BUSINESS PUNE/
MB57925 14/04/17 5.10 21/04/86 MA(ECO),SET, NET, PHD(APPEARING),PUNE UNIVERSITY NASHIK ASST.PROFESSOR IN M.PHULE MAHAVIDYALAY ( RAYAT SHIKSHAN SANSTHA )PUNE/
MB57924 14/04/17 5.07 28/12/88 BE COMPUTER PUNE SR.SOFTWARE ENGINEER PUNE/45000 PM
MB57923 14/04/17 5.09 11/12/87 B.TECH(AGRI) M.B.A KOLHAPUR WORKING IN BANK LATUR/300000 PA
MB57922 14/04/17 5.09 18/05/86 BE (E & TC) SATARA MANAGER BANGALORE/11.5 LAKH PA
MB57921 14/04/17 5.07 26/05/86 BSL. LLB. LLM APPEARED SATARA PRACTISE IN THE COURT + FACTORY SATARA/50000 PM
MB57920 14/04/17 5.09 08/03/87 M.B.A. (S.P. JAIN) MUMBAI SENIOR CONSULTANT MUMBAI/14,25,000 PA
MB57919 14/04/17 5.11 10/09/86 MSC(MATHS) KOLHAPUR CATERING BUSINESS KOLHAPUR/ PM
MB57918 14/04/17 5.11 14/05/87 PHD IN DRUG DISCOVERY PUNE SCIENTIST PUNE/600000 PA
MB57917 14/04/17 5.09 13/11/83 B.E. COMPUTER MUMBAI Software Engineer Capgemini /80,000 PM
MB57916 13/04/17 5.08 28/03/86 MBBS,M.D. GEN. MEDICINE JALGAON PRIVATE PRACTISE+PROF. IN MEDICAL COLLEGE, PUNE/1.75000 PM
MB57915 13/04/17 5.08 07/02/83 MBA + BE INDORE IT PROFESSIONAL NAVI MUMBAI/12.50LACS PA
MB57914 13/04/17 5.11 05/12/85 BE(COMPUTER), MS(USA) NASHIK SERVICE IN IBM USA/$ 85000 USD PA
MB57913 13/04/17 5.08 05/12/87 BCOM KOLHAPUR BUSINESS(TRANSPORT CONTRACTOR) KOLHAPUR/8 LAC PA
MB57912 13/04/17 5.06 25/01/91 M.M.S OSMANABAD PRIVATE JOB PUNE/500000 PA
MB57911 13/04/17 5.11 02/10/85 BA(ENGLISH) ENGLISH MEDIUM KOLHAPUR OWN GYM+PATANJALI SHOP+PARTNERSHIP IN CONSTRUCTION COMPANY KOLHAPUR/80000/-PM
MB57910 13/04/17 5.07 17/02/87 B.PHARM PUNE Dy Manager Reliance Life Science/6.7 LAC PA
MB57909 13/04/17 5.11 09/03/87 BE CIVIL MBA HR (APP) CHARTERED ENGINEER A.NAGAR GOVT OFFICER MUMBAI/50000 PM
MB57908 13/04/17 5.09 14/11/84 MBBS, DGO, DNB, MRGOG(PART I) AURANGABAD --/--
MB57907 13/04/17 6.02 24/10/89 MBA PUNE BUSINESS PUNE/900000 PA
MB57906 13/04/17 5.08 15/09/84 MS PHARMACEUTICAL SCIENCE , LONDON METROPOLITAN UNIVERSITY, LONDON, UK NAVI MUMBAI RESEARCH & DEVELOPMENT , GLENMARK PHARMACEUTICALS + BUSINESS IN KOLHAPUR NAVI MUMBAI/10,00,000++ PA
MB57905 13/04/17 5.09 05/06/90 GRADUATION BEED Postal Asst. Satara/35000 pm
MB57904 13/04/17 5.07 19/05/89 BE(COMPUTER SCIENCE OF ENGINEERING) PUNE JOB PUNE/1200000 PA
MB57903 12/04/17 5.07 06/04/89 B.E CIVIL ENGINEERING BANGALORE BUSINESS BANGALORE/1500000 PA
MB57902 12/04/17 6.00 31/01/88 BE(AERONAUTICS), MS(AERONAUTICS) TAMILNADU AEROSPACE ENGINEER (CANADA)/2 LAC PM
MB57901 12/04/17 5.08 07/08/84 BSC-MPED KOLHAPUR GOVT.SERVANT INDIAN CUSTOMS MUMBAI/40000/- PM
MB57900 12/04/17 5.08 04/09/87 MBA MARKETING PUNE OWN BUSINESS PUNE/85000 PM
MB57899 12/04/17 5.11 18/06/83 BDS & MDS (CONSERATIVE DENTISTRY AND ENDODNTIC ) JALGAON DOCTOR CIVIL HOSPITAL DHULE AND VISITING DOCTOR ENDODENTIST DOCTOR AT DHULE /200000 PM
MB57898 12/04/17 5.04 31/07/90 Mechanical Engineer PUNE Working at Alfa Laval /7 LAKH PA
MB57897 12/04/17 5.09 09/09/88 DIP IN INTERIOR DESIGNING SATARA BUSINESS SATARA/6 LAC PA
MB57896 12/04/17 5.09 12/04/88 MCA PUNE JAVA DEVELOPER PUNE/45000 PM
MB57894 12/04/17 5.09 25/02/88 M.Tech( Computer ), NIT-Surat PUNE Software engineer, Pune /78500 PM
MB57893 12/04/17 5.10 05/03/91 M.TECH CIVIL{ CONSTRUCTION MANAGEMENT} A.NAGAR ASSISTANT PROFESSOR A.NAGAR/45000 PM
MB57891 11/04/17 5.10 01/06/84 B.SC. COMPUTER SCIENCE PUNE COMPUTER BUSINESS BARAMATI/950000 PA
MB57890 11/04/17 5.09 01/01/86 DIPLOMA IN MECHANIAL ENG THANE OWN BUSINESS PUNE/60000 PM
MB57889 11/04/17 5.07 15/06/91 BE-MIT PUNE, MBA-IIT DELHI PUNE ACCOUNTS MANAGER IBM CO. BANGALORE/13 LAKH PA
MB57888 11/04/17 5.07 21/01/88 MBBS, MD ( MEDICINE) BELGAUM consultant BELGAUM/30 lakhs PA
MB57887 11/04/17 5.07 01/04/86 B.COM, MMS ( FINANCE ) MUMBAI SERVICE ( PRIVATE ) ( ASSISTANT MANAGER) MUMBAI ( HDFC Ergo )/600000 PA
MB57886 11/04/17 5.06 01/07/84 MA GEOGRAPHY BIDAR SERVICE/ PUNE in Panchshil Realty/8.4 LAC PA
MB57885 11/04/17 5.08 13/09/88 B TECH(MECH),MS (MECH)USA PUNE SERVICE USA/GOOD
MB57884 11/04/17 6.00 02/07/87 BE(COMPUTER) PUNE SOFTWARE ENGG USA (NOW IN RESIDING & SERVICE IN DALLAS USA)/USD $78000 PA
MB57883 11/04/17 5.06 12/03/88 BSC CHEMISTRY KOLHAPUR PERMANENT SERVICE AT KIRLOSKAR OIL ENGINES & BUSINESS KOLHAPUR/240000FROM SERVICE + PA
MB57882 11/04/17 5.11 14/04/84 Post Graduate PUNE Indian Administrative Service (IAS) Officer/
MB57881 10/04/17 6.00 04/11/91 MECHANICAL ENGG PUNE FITNESS EXPERT, SPORTS NUTRITIONIST REAL ESTATE & CONSTRUCTION PUNE/ PM
MB57880 10/04/17 5.11 22/06/90 ITI AND MECHANICAL DIPLOMA PUNE INDUSTRIAL AND SAFETY MATERIAL SUPPLIER ( BUSINESS) PUNE/28 LAC PA
MB57879 10/04/17 5.09 12/04/88 B.E. I.T PUNE Software Professional at Cognizant Pune /808000/- LAC PA
MB57878 10/04/17 5.07 08/05/88 B.TECH(PRODUCTION) PUNE SALES ENGINEER IN PUNE/3.5 LAC PA
MB57877 10/04/17 5.08 18/03/89 MS(COMP)USA, BE(COMP) PUNE SERVICE USA/$90000/+ PA
MB57876 10/04/17 5.07 11/11/87 BE + MBA PUNE IT PROFESSIONAL PUNE/1200000 PA
MB57875 10/04/17 5.09 27/11/88 English Medium from Convent School. B.E Mechanical - Mumbai University. MBA Operations NAVI MUMBAI BUSINESS OWN COMPANY NAVI MUMBAI/8 LAKHS+ PA
MB57874 10/04/17 5.06 21/09/86 MBA PUNE DEPUTY MANAGER AT MNC PUNE/850000 PA
MB57873 10/04/17 5.08 06/01/89 ENGINEERING SANGLI IT ENGINEER PUNE/1050000 PA
MB57872 09/04/17 5.07 11/08/91 BSC(BIOTECH), MBA FINANCE PUNE BANKING BRANCH MANAGAER NASHIK/50000 PM
MB57871 09/04/17 6.00 20/07/87 BE IN ELECTRONICS & COMMUNICATION GULBARGA SENIOR ENGINEER IN MANHATTEN BANGALORE/9.5 LAKHS PA
MB57870 09/04/17 5.07 27/10/90 BE ELECTRICAL PUNE SERVICE PUNE/5.30 LAC PA
MB57869 09/04/17 5.05 12/02/85 MCOM PUNE INFOSYS BPO PUNE/5.36 LAC PA
MB57868 09/04/17 5.09 08/05/86 BE(ELEC) PG IN HUMAN RESOURCES AUCKLAND,N.Z. PUNE SERVICE AUCKLAND, NEW ZEALAND./60000/-N.Z.$PA
MB57867 09/04/17 5.07 07/09/86 BE ELECTRONICS NAVI MUMBAI SOFTWARE ENGINEER NAVI MUMBAI/837000 PA
MB57866 09/04/17 5.10 04/06/87 M.C.A. KOLHAPUR SOFTWARE ENGINEER PUNE/1000000 PA
MB57864 09/04/17 5.11 05/03/90 B.E.(E&TC) C-DAC KOLHAPUR SOFTWARE ENGINEER PUNE/550000 PA
MB57863 09/04/17 5.11 25/11/88 DIPLOMA, B.E., M.E. - MECHANICAL MUMBAI PROFESSOR MUMBAI/500000 PA
MB57862 09/04/17 5.05 08/12/87 MBA JALNA SOFTWARE DEVELOPER/ ANALYST MUMBAI/40000 PM
MB57861 09/04/17 6.01 15/03/90 M.Tech. Machine Design (VJTI), BE Mechanical ( Mumbai University) MUMBAI Sr.Engineer Central Govt. Mumbai/750000 PA Mazagon Dock
MB57860 09/04/17 5.08 13/09/87 BE ELECTRONICS AND TELECOMMUNICATIONS AURANGABAD Software Engineer in HSBC /600000 PA
MB57859 09/04/17 5.10 27/09/87 BE(MECH), MBA(MKTG) SATARA ASST.MANAGER IN MNC MUMBAI/10.5 LAC PA
MB57858 09/04/17 5.07 28/10/86 DME, BE MECH (APPEARING) KOLHAPUR SERVICE /2000000+ PA
MB57857 09/04/17 5.08 11/08/84 12TH PUNE ICE-CREAM PARLOUR + DAIRY+ AGRI, PUNE/2 LAC+ PM
MB57856 09/04/17 5.09 04/11/87 BSC + MBA(Marketing) MUMBAI SERVICE MUMBAI-Club Mahindra /80,000 PM
MB57855 09/04/17 5.09 20/08/89 MBA MUMBAI SALARIED PROFESSIONAL MUMBAI/1050000 PA
MB57854 09/04/17 5.08 30/11/85 B.A, DIP IN AUTOMOBILE KOLHAPUR TRANSPORT BUSINESS & JOB @ REPUTED FIRM IN KOLHAPUR/
MB57853 09/04/17 5.07 15/10/88 B.E( COMPUTER SCIENCE & ENGG) MUMBAI Software Engineer at TCS Mumbai/10.26 lakh/annum.
MB57852 09/04/17 5.09 21/12/87 BE (ELECTRONICS AND COMMUNICATION) PUNE IT SERVICE PUNE/12.50 LAC PA
MB57851 08/04/17 5.08 28/09/86 MSC(ORG.CHEM) PUNE EVENT MGMT BUSINESS PUNE/--
MB57850 08/04/17 5.11 03/04/88 MCS PUNE SERVICE IN IBM PUNE/5.2 LAC PA
MB57849 08/04/17 5.10 02/03/88 MBA(FINANCE) SATARA OPERATIONS EXECUTIVE IN PUNE/3.6 LAC PA
MB57848 08/04/17 5.06 26/07/82 M.PHILL, WEB DEVELOPER, MBA APPEARING PUNE IT SECTOR PUNE/DONT WANT TO SPECIFY PM
MB57847 08/04/17 5.07 22/05/82 M.COM, M.B.S., G.D.C& A PUNE COP-OPERATIVE BANK JOB PUNE/35000 PM
MB57846 08/04/17 5.08 04/04/86 BA AURANGABAD TYRE SHOWROOM BUSINESS @ AURANGABAD/70000 PM
MB57845 08/04/17 5.07 05/05/89 BE(IT) PUNE BUSINESS - BORE WELL PUNE DAINIK MAHAPRV AKLUJ/1.5 LAC PM
MB57844 08/04/17 5.06 27/06/88 BDS KOLHAPUR DENTIST KAGAL/70000/-PM
MB57843 08/04/17 5.09 27/07/79 MSC(AGRI), PGDEM PUNE AGRI OFFICER Z.P. PUNE /39000/- PM
MB57842 08/04/17 5.08 12/03/85 MSC ORGANIC CHEMISTRY MUMBAI PROFESSIONAL MUMBAI/600000 PA
MB57841 08/04/17 5.08 20/07/90 B.TECH (MECH.), CFA (USA) PUNE SENIOR ENGINEER (JOHN DEERE, PUNE)/900000 pa
MB57840 08/04/17 5.04 16/09/88 M.C.A. KOLHAPUR S/W ENGINEER IN CAPGEMINI/650000 PA
MB57839 08/04/17 5.09 23/01/88 B.TECH / MBA LATUR SUPPLY CHAIN MANAGER PUNE/8.50 lakhs pa
MB57838 08/04/17 5.06 25/06/83 F.Y.BCOM, ELECTRICAL WIREMAN(PWD GOVT.) PUNE ELECTRICAL WIREMAN & REAL ESTATE BUSINESS/--
MB57837 08/04/17 5.09 31/03/89 BE, M.TECH PUNE SERVICE IN PUNE/7.5 LAC PA
MB57836 08/04/17 5.11 20/01/89 MICS (London), B.sc nautical science, Appearing for captain exams. THANE Private sector, 1st Mate FG Navigating Officer (Hong Kong office) /26L PA.
MB57835 08/04/17 5.06 23/08/90 BCS, MCA PUNE GOVT.SERVICE PCMC PUNE/40000 PM
MB57834 08/04/17 5.08 03/08/89 B.E. AUTOMOBILE SATARA SERVICE NASHIK/3.5 LACS PA
MB57833 07/04/17 5.07 16/01/91 BSC (AGRICULTURE) A.NAGAR GRAMSEVAK@SANGAMNER A.NAGAR/600000 PA
MB57832 07/04/17 5.08 05/04/84 B COM LATUR CREATIVE PRODUCER AT MUMBAI FILM COMPANY PUNE/100000 PM
MB57831 07/04/17 5.07 15/04/87 MCOM, DIP.EXPORT & IMPORT PUNE BUSINESS CONSTRUCTION- FACTORY PUNE/1.5 LAC PM+
MB57830 07/04/17 5.06 08/11/88 BE(ELECTRICAL) PUNE Flextronics technologies India pvt ltd Pune/460000/- PA
MB57829 07/04/17 5.08 07/08/87 B.E.(Mumbai University) THANE Software Developer in Boston, USA/$ 90000 per year
MB57828 07/04/17 5.10 23/01/86 CHARTERED ACCOUNTANT (CA) PUNE CHARTERED ACCOUNTANT PUNE/1800000 PA
MB57827 07/04/17 5.08 22/12/87 B.E ELECTRONICS KOLHAPUR SERVICE USA/$64000 PA
MB57826 07/04/17 5.11 10/02/88 M.A.-POLITICS PUNE GOVT. SERVICE-TAX INSPECTOR PUNE/400000 PA
MB57825 07/04/17 5.07 10/11/89 Diploma in Mechanical engineering. PUNE JOB PUNE/7 lack per anum
MB57824 07/04/17 5.07 02/10/89 BE E&TC NASHIK TECHNICAL MANAGER PUNE/1000000 PA
MB57823 07/04/17 5.08 07/09/89 M.E COMPUTER PUNE UNI. A.NAGAR PROBATIONARY OFFICER IN NATIONALISED BANK (CENTRAL GOVT.) PUNE/660000 PA
MB57822 07/04/17 5.04 02/10/83 PGDIT, MCSA, MCSE, VCP PUNE SENIOR SYSTEM ENGINEER (IT) PUNE/ PM
MB57821 07/04/17 5.08 24/09/87 MBA PUNE business (manufacturing) PUNE/14 LAC PA
MB57820 06/04/17 6.02 12/04/92 BA SOCIAL SCIENCE SATARA CRPF BHOPAL/35000 PM
MB57819 06/04/17 5.08 13/12/87 B.E. COMPUTER PUNE SOFTWARE PROFESSIONAL PUNE/18.5 LACKS PA
MB57817 06/04/17 6.00 22/07/87 CHARTERED ACCOUNTANT MUMBAI SERVICE MUMBAI/
MB57816 06/04/17 5.09 22/11/86 M.COM, DTL PUNE Accounts Executive in MNC, 5,20,000/- lac per annum. + 93,000/- Incentive (Last Year)/
MB57815 06/04/17 5.06 01/05/86 BAMS PUNE AYU.MEDICAL OFFICER (MCO) PUNE/SDH
MB57814 06/04/17 5.10 27/03/90 TRAINED AS DEEP SEA DIVER SATARA DEEP SEA DIVING /15 LAKHS PA
MB57813 06/04/17 5.07 10/08/85 M.PHARM MUMBAI SERVICE MUMBAI/5,48,000 PA
MB57812 06/04/17 5.04 09/04/88 B.TECH (FOOD ENGG.), MMS(FINANCE) JALGAON ASST MANAGER, SECURITIES AND EXCHANGE BOARD OF INDIA, MUMBAI/12 LAKH PA
MB57811 06/04/17 5.08 30/03/87 MASTERS IN INFORMATION TECHNOLOGY (MSC IT) MUMBAI SENIOR CONSULTANT IN IT FIRM MUMBAI/11 PA
MB57810 05/04/17 5.11 05/06/90 MSC BIO-TECH, MBA SATARA SERVICE TCS COMPANY PUNE/7 LAC PA
MB57809 05/04/17 5.08 06/07/86 MBBS(KEM, Parel); MD (Chest); DNB (Resp dis). MUMBAI MUMBAI/ PM
MB57808 05/04/17 5.07 28/11/89 B.COM (OWNERS) SATARA CONSTRUCTION SUPERVISOR & SURVEYOR DELHI/400000 PA
MB57807 05/04/17 5.07 05/12/88 M.PHARM PUNE SCIENTIST PUNE/35000 PM
MB57806 05/04/17 5.11 23/10/89 BE IT ENGINEER PUNE SOFTWARE ENGINEER PUNE/720000 PA
MB57805 04/04/17 5.05 17/09/87 HSC, ENGINEERING, ELECTRIC DIP PUNE HOTEL+GENERAL STORE PUNE/-
MB57804 04/04/17 5.11 11/08/85 MBBS, M.S. (OPTHAL) FINAL MUMBAI AFTER COMPLETING MS FROM GMC JABALPUR SETTLING IN MUMBAI./40,000 STIPEND PM
MB57803 04/04/17 5.05 20/03/89 BE ELECTRONICS SANGLI MANAGER MUMBAI/800000 PA
MB57802 04/04/17 5.11 06/06/90 DIPLOMA IN MECHANICAL ENGINEERING SATARA PIPING DESIGN ENGINEER SAUDI ARABIA/22 LAKHS PA
MB57801 04/04/17 5.04 09/12/86 MA IN MARKETING & HOTEL MANAGEMENT MUMBAI BUSINESS/JOB MUMBAI/
MB57800 04/04/17 5.05 22/08/86 MBBS DCH DNB Pediatrics(Mumbai) A.NAGAR Final Yr DNB resident, MUMBAI/51000PM
MB57797 04/04/17 5.08 21/12/86 BSC(CHEM), PGDBM, MBA PUNE TORRENT PHARMA LTD +BUSINESS PUNE/40000/-PM
MB57796 04/04/17 5.07 28/04/87 BAMS, MD(AYURVED) (PEDIATRICS), DIP.IN YOGA & AYURVEDA PUNE OWN CLINIC PUNE/--
MB57795 04/04/17 5.10 15/03/91 BCOM PUNE CAR FINANCE(KOTAK MAHINDRA PRIME LTD.) PUNE/
MB57794 04/04/17 5.05 04/02/87 M.TECH(COMPUTER) PUNE SOFTWARE ENGINEER PUNE/16.5+ LAKHS PA
MB57793 04/04/17 5.06 10/09/89 B.E.MECHANICAL PUNE SERVICE IN MNC PUNE/7.3 LAKH PA
MB57792 04/04/17 6.00 16/05/86 BE(CIVIL), ME(STRUCTURES), (GOVT.COLLEGE OF ENGG) KOLHAPUR CLASS-II OFFICER IN PUNE MUNICIPAL CORPORATION /5 LAC PA
MB57791 04/04/17 5.06 31/05/89 MCA SOLAPUR S/W DEVELOPER IN AMDOCS(MNC), PUNE/8.5 LAC PA
MB57790 04/04/17 6.02 10/12/90 BCOM, MBA(FINANCE) PUNE service in SBI/7 lakhs pa
MB57789 04/04/17 5.07 24/05/89 BE(IT) PUNE, MS(MIS), UNIVERSITY OF TEXAS AT DALLAS PUNE SOLUATION DEVELOPER AT DELOITTE CONSULTING LLP ORANDO FLORIDA USA/-
MB57788 04/04/17 5.08 14/03/86 MS ( AEROSPACE ENGG - Norfolk, USA), BE (MECHANICAL ENGG) PUNE ASSISTANT MANAGER, (TOOL TECH TOOLINGS) AURANGABAD/700000 PA
MB57787 04/04/17 5.07 21/02/87 MCA SATARA SR. SOFTWARE ENGINEER AT MNC PUNE/1150000 PA
MB57786 04/04/17 5.10 02/07/82 B.E(ELECTRONICS)+PG DIPLOMA (EMBEDDED SYSTEM DESIGNING) MUMBAI S/W PROGRAMMER IN MNC MUMBAI/42000 PM
MB57785 04/04/17 5.08 27/05/86 MBA FINANCE(MUMBAI UNIVERSITY) PERSUING CWM SOLAPUR FINANCIAL ANALYST PUNE/3 LAC PA
MB57784 04/04/17 5.07 03/08/88 B.SC AND B.E. CIVIL 3YR APPEARED BEED GOVERNMENT JOB AT THERMAL POWER STATION .PARLI VAIJNATH BEED/50000 AND ABOVE PM
MB57783 04/04/17 5.11 16/04/89 BE (MECHANICAL ENGG) BELGAUM I.T ANLYST IN TCS BANGALORE/700000 PA
MB57782 04/04/17 5.07 06/04/89 B.E CIVIL BANGALORE BUSINESS BANGALORE/150000 PA
MB57781 03/04/17 5.08 09/03/86 BE(MECH) ME(MFG) LATUR HEAD OF DEPARTMENT LATUR/100000 PM
MB57780 03/04/17 5.04 13/02/92 BE COMPUTER PUNE SERVICE PUNE/4,50,000/- PA
MB57779 03/04/17 5.06 06/08/90 M.TECH (POWER ELECTRONICS) SOLAPUR DESIGN ENGINEER (KRAFT POWERCON) PUNE/ PM
MB57778 03/04/17 5.07 05/08/89 DMLT SATARA OWN BUSINESS SATARA/50000-65000 PM
MB57777 03/04/17 5.06 09/02/87 BE PUNE S/W ENGINEER PUNE/7,20,000/- PA
MB57776 02/04/17 5.06 04/03/85 MCA OSMANABAD S/W ENGINEER PUNE/350000/-
MB57775 02/04/17 5.08 23/11/88 MBA(FINANCE) PUNE ANALYST BNY MELLON PUNE/4.8 LAC PA
MB57774 02/04/17 5.05 02/09/84 MCOM PUNE Insurance and Investment consultant.Service + Business. /40000 PM
MB57773 02/04/17 5.05 13/09/85 PHD KOLHAPUR RESEARCH SCIENTIST CHINA/1400000 PA
MB57772 02/04/17 5.08 04/02/86 B.E.CHEMICAL SANGLI PROJECT ENGG. MUMBAI/25000/- PM
MB57771 02/04/17 5.10 06/07/88 ENGINEER SATARA ASST.MANAGER PUNE/50000 PM
MB57770 02/04/17 5.09 09/04/90 BHMCT, MBA(SALES & MKTG) PUNE ASST.SALES MANAGER PUNE/--
MB57769 02/04/17 5.07 03/11/90 B.E. MECHANICAL PUNE SERVICE PUNE/500000 PA
MB57768 02/04/17 5.11 05/02/89 MBA SOLAPUR SERVICE PUBLIC SECTOR BANK SBI paranda/25000 PM
MB57767 02/04/17 5.09 16/07/84 BE(ELECTRONICS) PUNE SR.ASSOCIATE COGNIZANT PUNE/--
MB57766 02/04/17 5.04 11/02/90 BE(COMP) PUNE SERVICE IN COGNIZANT PUNE/--
MB57765 02/04/17 5.07 26/11/89 MBA(FINANCE) PUNE SERVICE PUNE/6.4 LAC PA
MB57764 02/04/17 5.05 12/10/89 MCS, MBA PUNE SR.QUALITY ANALYST PUNE/45000/-PM
MB57763 02/04/17 5.07 08/10/91 BBA PUNE PRIVATE JOB PUNE/500000 PA
MB57762 02/04/17 5.12 29/08/90 B.TECH MECHANICAL SATARA JOB IN PUNE/400000 PA
MB57761 01/04/17 6.00 10/01/89 BE(COMPUTER) PUNE SR. SOFTWARE ENGINEER IN COGNIZANT PUNE/ 70000 PM
MB57760 01/04/17 5.04 08/11/89 DIPLOMA IN CIVIL ENGINEERING SANGLI BUILDERS & DEVELOPERS SANGLI/2000000 PA
MB57759 01/04/17 6.00 27/08/91 BE(COMPUTER ENGINEER) PUNE SOFTWARE ENGINEER PUNE/ PM
MB57758 01/04/17 5.07 25/06/87 BCOM PUNE SERVICE PUNE/25000/-PM
MB57757 01/04/17 5.11 18/03/91 CA PUNE FINANCE CONTROLLER IN AMCOR COMAPNY pune/9 LAC PA
MB57756 01/04/17 5.09 22/07/88 B.E. ELECTRICAL (PGDBM appearing) A.NAGAR SENIOR DESIGN ENGINEER (AtlasCopco.)/ PM
MB57755 01/04/17 5.10 12/09/86 MCS PUNE SERVICE IN MNC PUNE/10 LAC PA
MB57754 01/04/17 6.00 01/11/88 MSC(CHEM), MBA (OPERATION), ADI(SAFETY) PUNE SAFETY ENGINEER IN MNC PUNE/--
MB57753 01/04/17 5.06 03/12/88 BE (CIVIL), M.TECH (IIT GUWAHATI) SATARA ASSISTANT MANAGER AT L&T ECC CHENNAI/8.5 LAC PA
MB57752 01/04/17 5.04 27/04/91 BE CHEMICAL SANGLI PRODUCTION OFFICER RAIGAD/300000 PA
MB57751 01/04/17 5.06 27/11/87 CS (COMPANY SECRETARY), M.COM SANGLI CS (COMPANY SECRETARY) PUNE/4.5 LAC PA
MB57750 01/04/17 5.08 19/10/89 B.E(MECH) PUNE SOFTWARE DEVELOPER PUNE/ PM
MB57749 01/04/17 5.06 25/01/89 B.C.S. SATARA SERVICE PUNE/450000 PA
MB57748 01/04/17 5.10 17/12/87 BE(COMPUTER) THANE SOFTWARE ENGINEER PUNE/700000 PA
MB57747 01/04/17 5.11 11/05/89 BSL LLM DCL NET(INTERNATIONAL LAW) JUDGE JMFC-STATE RANK-I SANGLI JUDGE; MAHARASHTRA STATE PUNE/9.50 LAC PA
MB57746 31/03/17 5.07 06/10/87 BE YAVATMAL SOFTWARE PROGRAMMER PUNE/3.5 LAC PA
MB57744 31/03/17 5.07 27/01/91 BE COMPUTER LATUR BUSINESS LATUR/2000000 PA
MB57743 31/03/17 5.08 06/04/89 B.E CIVIL ENGINEERING BANGALORE Business with 2 cr capital investment, daily turnover of 1 cr. , Gold refinery plant of 5 kg capacity bangalore /
MB57742 31/03/17 5.05 24/07/86 BE(ELECTRONICS ENGINEER) KOLHAPUR SOFTWARE ENGINEER PUNE/9 LAC PA Currently in UK
MB57741 31/03/17 5.10 30/09/87 BE, MS(UK) LATUR JOB UAE/18 LAKH PA
MB57740 31/03/17 5.06 27/09/88 BA MUMBAI SWEET HOME HOTEL /60000 PM
MB57739 31/03/17 5.07 17/05/88 BE(MECH)PGDM (MBA) MKTG & OPERATIONAL RESEARCH NASHIK SERVICE/1 LAC PM
MB57738 31/03/17 5.07 21/07/82 BSC CF1,FA1 AND FA2, SOFTWARE TESTING PUNE BUSINESS PROCESS LEADER PUNE/800000 PA
MB57737 31/03/17 5.03 01/09/90 B.E E&TC PUNE SOFTWARE ENGINEER PUNE/470000 PA
MB57735 31/03/17 5.05 15/04/84 12TH+ITI NCVT THANE TECHNOVA MUMBAI/4.2 LAC PA
MB57734 31/03/17 5.05 24/07/90 MBBS, DOING MD IN MEDICINE KOLHAPUR DOING MD IN MEDICINE AT PUNE/--
MB57733 31/03/17 5.07 21/07/84 B.E.[MECHANICAL]+CDAC PUNE SOFTWARE ENGINEER PUNE/12 Lacs
MB57732 31/03/17 5.10 31/03/86 MBA ( INDIAN INSTITUTE OF MANAGEMENT BANGALORE) PUNE ENTREPRENEUR BANGALORE/3000000 PA
MB57731 31/03/17 5.09 28/01/89 BE MECHANICAL KOLHAPUR SOFTWARE ENGINEER PUNE/1100000 PA
MB57730 31/03/17 6.01 30/12/83 MBA, B.E.(MECHANICAL) THANE CONSULTANT THANE/1200000 PA
MB57728 31/03/17 5.06 19/10/90 BE(University Gold Medallist), M.Tech.(M/C Design) from V.J.T.I. Mumbai SATARA Sr. CAE Engineer TATA TECHNOLOGIES pune/50000 PM
MB57727 31/03/17 5.06 12/09/87 BE COMPUTER ENGINEER SOLAPUR TRIPLE POINT TECHNOLOGY PUNE/16.75 LAC PA
MB57726 31/03/17 5.05 15/03/86 FINE ART PUNE TEACHER PUNE/228000 PA
MB57725 30/03/17 5.06 22/09/86 MBA PUNE SERVICE IN DEUTSCHE BANK PUNE/50000 PM
MB57723 30/03/17 6.01 03/12/80 CHARTERED FINANCIAL ANALYST MUMBAI SR VICE PRESIDENT CITY BANK(NEW YORK)/1.54 CRORE PA
MB57722 30/03/17 5.11 24/09/89 BTECH (COE, PUNE) MBA (Exe) (SIBM PUNE) PUNE Private Job and own Startup at Pune/1800000 PA
MB57721 30/03/17 5.04 04/10/86 MASTER IN COMPUTER MANAGEMENT MUMBAI PROJECT MANAGER MUMBAI/55000 PM
MB57720 30/03/17 5.04 22/05/86 M.TECH(MECH) KOLHAPUR SERVICE IN PUNE/--
MB57719 30/03/17 5.10 31/05/86 B.COM, LLB, DTM MUMBAI SR.ASSOCIATE LAW FIRM MUMBAI/1 LAC PM
MB57718 30/03/17 5.06 06/08/85 M.COM, CMA (ICWA), CS (COMPANY SECRETARY) THANE MANAGER @ ADITYA BIRLA GROUP MUMBAI/941000 PA
MB57717 30/03/17 5.04 06/06/89 M.SC.(CHEMISTRY) NAVI MUMBAI SERVICE IN PHARMA SECTOR NAVI MUMBAI/45000 PM
MB57716 30/03/17 5.07 03/11/87 BE(MECH), EXECUTIVE MBA PUNE SR.MANAGER PUNE/9.6 LAC PA
MB57715 30/03/17 5.11 28/02/87 MBA-IT, BE-IT THANE SR. BUSINESS ANALYST VASHI NAVI MUMBAI/8.2 Lakh per year
MB57714 30/03/17 5.09 01/03/90 MECHANICAL ENGINEERING SOLAPUR MANAGER PUNE/7.5 - 10 LACS PA
MB57713 30/03/17 5.10 09/10/88 BE(CIVIL), ME(STRUCTURAL) KARAD BUSINESS THANE/ PM
MB57712 30/03/17 5.06 14/08/85 MBBS .D.ORTHO(CPS) MUMBAI KOLHAPUR PRIVATE PRACTICE KOLHAPUR/2 LACS PM
MB57711 29/03/17 5.09 14/03/92 MBA FINANCE(PUNE) DHULE GOLD JEWELLERY (RETAIL) BUSINESS DHULE/100000 PM
MB57710 29/03/17 5.07 10/04/88 BSL, LLB, DTL, LLM PUNE PRACTICE PUNE/
MB57709 29/03/17 5.10 11/04/90 MASTERS IN NETWORKING AND TELECOMMUNICATION THANE NETWORK ENGINEER AUSTRALIA/
MB57708 29/03/17 5.07 07/05/90 MBA INTERNATIONAL BUSINESS (UNITED KINGDOM) NASHIK INDUSTRIALIST NASHIK/200000 PM
MB57707 29/03/17 5.07 01/11/85 BSC HOTEL MGMT, DIP IN CULINERY ARTS PUNE CHEF PUNE/45,000 NZ$ PA
MB57706 29/03/17 6.00 01/02/89 BACHELORS IN INFORMATION SYSTEMS AND COMPUTNG NAVI MUMBAI DIGITAL MARKETING PROFESSIONAL DUBAI/2600000 PA
MB57705 29/03/17 5.09 04/11/80 BE, PGDAC ( C-DAC ACTS PUNE ) PUNE SOFTWARE PROFESSIONAL PUNE/1821000 PER ANNUM PA
MB57704 29/03/17 5.11 27/12/86 BE(E&TC) PUNE S/W ENGG PUNE/10.25 LAC PA
MB57703 29/03/17 5.04 25/08/90 BE CSE, ME CSE AURANGABAD ASST. PROFESSOR AURANGABAD/ PM
MB57702 29/03/17 5.09 11/10/87 BE(COMP) KOLHAPUR MODULE LEAD IN TECH MAHINDRA COMPANY PUNE/12 LAC PA
MB57701 29/03/17 6.00 28/09/89 BE.MECHANICAL SANGLI SERVICE NAGPUR/9.5 LAC PA
MB57700 29/03/17 5.07 30/08/91 BE in Computer Engineering (University of Mumbai), MS in Information Systems (USA) NAVI MUMBAI Senior Technology Analyst - New York, NY, USA/50 LAC PA
MB57699 29/03/17 5.09 22/12/86 MBA IN SCM, DIPLOMA IN LOGISTICS, BA. ENGLISH PUNE GM . PUNE/30000 PM
MB57698 29/03/17 5.09 31/08/76 B.E. (ELECTRONICS & TELECOMMUNICATION) PUNE SERVICE IN MNC SINGAPORE/ PM
MB57697 29/03/17 5.09 25/08/90 B.Tech. (Electrical)-Mumbai University / M.Tech. (Project Management)- College Of Engineering Pune(COEP) / Preparing For PHD-(Industrial Engineering) in Germany or Singapore MUMBAI Associate at Cognizant Tech. Solutions- 6 LAC PA / Maths Lecturer in Engineering Classes / Proprietor at own Electrical Contracting Firm (M/S. Powertron Electricals) /
MB57696 29/03/17 5.07 06/08/83 MBBS DPH MUMBAI DTO BMC MUMBAI/1200000 PA
MB57695 29/03/17 5.11 03/09/90 BE (E&TC) PARBHANI SOFTWARE ENGINEER PUNE/8.00 LAKH PA
MB57694 29/03/17 5.08 02/09/90 B.E.(Mech) SATARA SOFTWARE ENGINEER MUMBAI/4 LACS PA
MB57693 28/03/17 5.08 28/01/86 MSC MARKETING (LONDON) MUMBAI SERVICE IN LONDON UK/50000 GBP PA
MB57692 28/03/17 5.10 26/12/87 BE(COMP) PUNE TEAM LEAD EXTENTIA INFORMATION TECH, PUNE/15 LAC PA
MB57691 28/03/17 5.04 27/06/87 B.A.M.S,D.GENERAL MED, EMS SATARA DOCTOR SATARA/60000 PM
MB57690 28/03/17 5.10 07/09/85 MDS (PERIODONTICS & IMPLANTOLOGY), DIPLOMAT ICOI (USA) PUNE CONSULTING SURGEON AT VARIOUS DENTAL CLINICS PUNE/12-15 LAKHS PA
MB57689 28/03/17 5.06 08/06/88 B.COM, CA PUNE CHARTERED ACCOUNTANT [SERVICE] PUNE/60000 PM
MB57687 28/03/17 5.04 27/02/91 DCE, BE IT KOLHAPUR SYSTEM SOFTWARE ENGINEER PUNE/16.32 LAC PA
MB57686 28/03/17 5.11 31/12/85 EXECUTIVE MBA (IT PROJECT MGMT & OPS.) FROM Symbiosis International University PUNE IT PROJECT MANAGER, HEWLETT-PACKARD (HP) ENTERPRISE LTD., PUNE/16,00,000.00 PA
MB57685 28/03/17 5.09 19/12/89 DIP.IND.ELECTRONICS PUNE SERVICE PUNE/20000/-PM
MB57684 28/03/17 6.00 05/08/88 bcs MBA 2nd year running PUNE Associate Manager-Service Delivery /40,000 /- p.m.
MB57683 28/03/17 5.11 03/02/86 BCOM,PURSUING MBA,ENGLISH MEDIUM CONVENT EDUCATED NASHIK Own rubber product Mfg factory,Land developing & construction nashik/ 20,00,000 pa+
MB57682 28/03/17 5.06 11/02/90 BACHELORS IN ENGINEERING (ELECTRICAL) PUNE MANAGING DIRECTOR & CTO IN OWN S/W COMPANY PUNE/90,000 PM
MB57681 28/03/17 5.06 29/09/87 BE(COMPUTER SCIENCE) MTECH(SOFTWARE SYSTEMS) BITS PILANI KARAD TECHNOLOGY ANALYST AT INFOSYS PUNE NOW IN UK/
MB57680 28/03/17 5.08 21/01/83 B COM MUMBAI SERVICE MUMBAI/400000 PA
MB57679 28/03/17 5.11 04/12/86 BE(E&TC) PUNE JOB PUNE/6.6 LAC PA
MB57678 28/03/17 5.03 05/05/89 BE(CIVIL) PUNE DINING HALL+COACHING CLASSES PUNE/10 LAC PA
MB57677 28/03/17 5.09 09/08/91 D.PHARM SATARA MEDICAL AND WHOLESALE STORE SATARA/40000-50000 PM
MB57676 28/03/17 5.08 02/01/86 B.COM, MBA(FINANCE) PUNE BUSINESS+JOB PUNE/75000 PM
MB57675 28/03/17 5.07 01/05/90 M TECH (STRUCTURAL ENGINEERING) PUNE ASSISTANT PROFESSOR PUNE/60000 PM
MB57673 28/03/17 5.08 13/10/87 MSC.BIOMEDICAL SCIENCES PUNE ANALYST- MARKET RESEARCH PUNE/400000 PA
MB57672 28/03/17 5.07 26/07/92 BE ETC NAVI MUMBAI SERVICE S/W ENGINEER NAVI MUMBAI/4.8 LAC PA
MB57671 28/03/17 5.10 16/09/87 B.E.(MECHANICAL), MBA SATARA ENGINEER IN MNC PUNE/
MB57669 28/03/17 5.06 21/12/89 MBA MUMBAI MANAGER MUMBAI/50000 PM
MB57668 28/03/17 5.07 14/01/88 DIPLOMA IN AUTO ENGG. PUNE SEMI GOVERNMENT SERVICE PUNE/21500 PM
MB57667 28/03/17 5.09 06/06/87 MCA PUNE SOFTWARE ENGINEER PUNE/750000 PA
MB57666 27/03/17 5.04 31/07/86 M.C.A PUNE SOFTWARE ENGINEER PUNE/750000 PA
MB57665 27/03/17 5.05 02/08/90 M.TECH (COMPUTER SCIENCE AND ENGINEERING) SATARA SOFTWARE DEVELOPMENT BUSINESS SATARA/500000.00 PA
MB57664 27/03/17 5.11 31/07/87 MS-IN ENGINEERING MANAGEMENT (USA) THANE SALESFORCE BUSINESS ANALYST USA/USD-96K PA
MB57663 27/03/17 5.11 18/09/89 M.S. KOLHAPUR CIVIL ENGINEER USA/ PA
MB57662 27/03/17 5.08 21/03/88 B.COM, INTER CA, INTER CS MUMBAI BANKING PROFESSION MUMBAI/50000/- + PM
MB57661 27/03/17 6.00 02/06/91 B.E MECH. NASHIK SERVICE IN H.A.L, OZAR, NASHIK/44000 PM
MB57660 27/03/17 5.05 02/07/90 MCA SANGLI SOFTWARE ENGINEER PUNE/660000 PA
MB57659 27/03/17 5.09 12/04/89 BA PUNE CASHIER IN GOVT. BANK PUNE/30000 PM
MB57658 27/03/17 5.10 16/09/90 BE E&TC, CDAC PUNE SOFTWARE DEVELOPER(JAVA) PUNE/520000 PA
MB57657 27/03/17 5.08 29/06/90 M.C.A. PUNE SOFTWARE ENGINEER PUNE/250000 PA
MB57656 27/03/17 5.07 29/12/89 BTECH (INSTRU,COEP), ME (MICROELECTRONICS, IISC) SOLAPUR ELECTRICAL DESIGN ENGINEER BANGALORE/12 LAC PA
MB57655 27/03/17 5.08 12/06/90 B.E.MECHANICAL THANE PURCHASE ENGINEER THANE/500000 PA
MB57654 26/03/17 5.11 31/01/87 BSC, D.PHARM PUNE OWN MEDICAL WHOLESALE SHOP PUNE/35000/+
MB57653 26/03/17 5.08 10/12/80 MD(Ayu) PANVEL JOB NAVI MUMBAI/600000 PA
MB57652 26/03/17 5.11 07/06/88 BE, MS(USA) PUNE S/W ENGINEER USA/60 LAC PA
 
    page 6 of 16
 
Home | Rules | Search | Enroll | Grooms | Brides | Divorcee | Response | Magazine | Success Stories | Contact Us